Hourly Data Report for October 07, 2014

All times are specified in Local Standard Time (LST). Add 1 hour to adjust for Daylight Saving Time where and when it is observed.

GJOA HAVEN A
NUNAVUT

68°38'08.000" N
95°51'01.000" W
46.90 m
2302337
71597
YHK

Download Data

Hourly Data (October 2014)
Hourly Data Report for October 7, 2014
Temp Definition
°C
Dew Point Temp Definition
°C
Rel Hum Definition
%
Wind Dir Definition
10's deg

Wind Spd Definition
km/h
Visibility Definition
km
Stn Press Definition
kPa
Hmdx Definition


Wind Chill Definition


Weather Definition


TIME
00:00 Legend Double Dagger -1.3 -2.0 95 9 39 14.5 101.41   -9 LegendNANA
01:00 Legend Double Dagger -1.2 -1.9 95 9 41 14.5 101.43   -9 LegendNANA
02:00 Legend Double Dagger -1.2 -1.9 95 9 37 14.5 101.46   -9 LegendNANA
03:00 Legend Double Dagger -1.2 -1.8 96 8 39 12.9 101.47   -9 LegendNANA
04:00 Legend Double Dagger -1.2 -1.9 95 9 43 14.5 101.50   -9 LegendNANA
05:00 Legend Double Dagger -1.3 -2.0 95 9 43 12.9 101.54   -9 LegendNANA
06:00 Legend Double Dagger -1.4 -2.2 94 9 41 14.5 101.58   -9 LegendNANA
07:00 Legend Double Dagger -1.4 -2.1 95 9 45 12.9 101.60   -10 LegendNANA
08:00 Legend Double Dagger -1.5 -2.1 96 9 43 11.3 101.61   -10 Snow
09:00 Legend Double Dagger -1.5 -2.2 95 9 41 12.9 101.62   -9 Snow
10:00 Legend Double Dagger -1.5 -2.1 96 9 37 14.5 101.64   -9 LegendNANA
11:00 Legend Double Dagger -1.2 -2.0 94 9 34 16.1 101.68   -8 LegendNANA
12:00 Legend Double Dagger -1.1 -1.9 94 10 32 16.1 101.70   -8 LegendNANA
13:00 Legend Double Dagger -1.0 -1.6 95 9 34 14.5 101.75   -8 LegendNANA
14:00 Legend Double Dagger -1.1 -1.9 94 9 35 12.9 101.76   -8 LegendNANA
15:00 Legend Double Dagger -1.3 -2.1 94 9 35 12.9 101.82   -9 LegendNANA
16:00 Legend Double Dagger -1.4 -2.2 94 9 35 14.5 101.86   -9 LegendNANA
17:00 Legend Double Dagger -1.5 -2.4 94 9 39 12.9 101.86   -9 LegendNANA
18:00 Legend Double Dagger -1.6 -2.3 95 9 34 12.9 101.89   -9 LegendNANA
19:00 Legend Double Dagger -1.6 -2.4 94 9 32 14.5 101.88   -9 LegendNANA
20:00 Legend Double Dagger -1.6 -2.3 95 9 28 14.5 101.90   -8 LegendNANA
21:00 Legend Double Dagger -1.6 -2.3 95 9 32 16.1 101.92   -9 LegendNANA
22:00 Legend Double Dagger -1.6 -2.3 95 9 28 16.1 101.93   -8 LegendNANA
23:00 Legend Double Dagger -1.3 -2.0 95 9 28 16.1 101.93   -8 LegendNANA

Notes on Data Quality.

Legend

  • E = Estimated
  • M = Missing
  • NA = Not Available
  • ‡ = Partner data that is not subject to review by the National Climate Archives
Date modified: